Overview Statistics Trail Chart Weather Telemetry Raw packets
 

This is the latest recevied weather packets stored in our database for station/object KB0Y. If no packets are shown the sender has not sent any weather packets the latest 10 day(s).

<< 12 13 14 15 16 17 18 >>
Time Temp. Humidity Pressure Rain* Wind** Luminosity Snow
1788531755 25° C 98% 1020.3 hPa 0 mm - 55 W/m² -
1788531455 25° C 98% 1020.3 hPa 0 mm - 61 W/m² -
1788531150 25° C 98% 1020.3 hPa 0 mm - 86 W/m² -
1788530846 25° C 98% 1020.3 hPa 0 mm - 92 W/m² -
1788530541 25° C 98% 1020 hPa 0 mm - 105 W/m² -
1788530240 25° C 98% 1020 hPa 0 mm - 119 W/m² -
1788529935 25° C 98% 1020 hPa 0 mm - 92 W/m² -
1788529631 25° C 98% 1020 hPa 0 mm - 83 W/m² -
1788529330 25° C 98% 1020 hPa 0 mm - 81 W/m² -
1788529025 25° C 98% 1020 hPa 0 mm - 62 W/m² -
1788528722 25° C 98% 1020.3 hPa 0 mm - 74 W/m² -
1788528420 25° C 98% 1020.3 hPa 0 mm - 61 W/m² -
1788528116 25° C 98% 1020 hPa 0 mm - 53 W/m² -
1788527815 25° C 98% 1020 hPa 0 mm - 62 W/m² -
1788527511 25° C 98% 1020 hPa 0 mm - 50 W/m² -
1788527205 25° C 98% 1019.6 hPa 0 mm - 61 W/m² -
1788526905 25° C 98% 1019.6 hPa 0 mm - 59 W/m² -
1788526601 25° C 98% 1019.6 hPa 0 mm - 62 W/m² -
1788526296 25° C 98% 1020 hPa 0 mm - 53 W/m² -
1788525991 25° C 98% 1020 hPa 0 mm - 52 W/m² -
1788525687 25° C 98% 1020 hPa 0 mm - 43 W/m² -
1788525387 25° C 98% 1019.6 hPa 0 mm - 43 W/m² -
1788525083 25° C 98% 1019.6 hPa 0 mm - 38 W/m² -
1788524777 25° C 98% 1019.3 hPa 0 mm - 38 W/m² -
1788524472 25° C 98% 1019.3 hPa 0 mm - 33 W/m² -

* Rain latest hour (hover to see other rain measurements)
** Current wind speed in m/s (hover to see current wind gust speed)